Location: Rounton
(54.4000°N, 1.3500°W)
Time: 17:17:05
(UTC+00:00)

Tiros 1 despin weight - Pass Details

Date: 06 December 2021
Orbit: 592 x 641 km, 48.2° (Epoch: 21 January)

Event Time Altitude Azimuth Distance (km) Brightness Sun altitude
Rises 17:34:32 0° 271° (W) 2,827 ? -15.1°
Reaches altitude 10° 17:37:26 10° 252° (WSW) 1,922 ? -15.5°
Maximum altitude 17:40:21 18° 210° (SSW) 1,493 ? -15.9°
Drops below altitude 10° 17:43:16 10° 168° (SSE) 1,922 ? -16.3°
Sets 17:46:10 0° 149° (SSE) 2,827 ? -16.7°
